Weather History for Langdon, ND

Change the Weather History Date:

Friday, April 27, 2012

  Actual Average (KDVL) Record (KDVL)
Temperature  
Mean Temperature 44 °F -  
Max Temperature 50 °F 56 °F 93 °F (1952)
Min Temperature 37 °F 34 °F 15 °F (1956)
Degree Days  
Heating Degree Days 22    
Moisture  
Dew Point 24 °F    
Average Humidity 50    
Maximum Humidity 93    
Minimum Humidity 32    
Precipitation  
Precipitation 0.00 in - - ()
Sea Level Pressure  
Sea Level Pressure 30.06 in    
Wind  
Wind Speed 19 mph (ESE)    
Max Wind Speed 28 mph    
Max Gust Speed 36 mph    
Averages and records for this station are not official NWS values.
T = Trace of Precipitation, MM = Missing Value Source: NWS Daily Summary

Daily Weather History Graph

Daily Weather History Graph

Search for Another Location

Airport:

Trip Planner

Search our weather history database for the weather conditions in past years. The results will help you decide how hot, cold, wet, or windy it might be!

Date:

Astronomy

Apr. 27, 2012 Rise Set
Actual Time 6:19 AM CDT 8:43 PM CDT
Civil Twilight 5:44 AM CDT 9:18 PM CDT
Nautical Twilight 5:00 AM CDT 10:02 PM CDT
Astronomical Twilight 4:10 AM CDT 10:53 PM CDT
Moon 10:51 AM CDT (4/27) 1:39 AM CDT (4/27)
Length of Visible Light 15h 34m
Length of Day
14h 24m
Waxing Crescent, 33% of the Moon is Illuminated
Apr 27
Waxing Crescent
Apr 29
First Quarter
May 5
Full
May 12
Last Quarter
May 20
New

Hourly Weather History & Observations

Time (CDT) Temp. Windchill Dew Point Humidity Pressure Visibility Wind Dir Wind Speed Gust Speed Precip Events Conditions
12:15 AM 41.0 °F 32.2 °F 17.6 °F 39% 30.11 in - ESE 18.4 mph - N/A   Mostly Cloudy
12:35 AM 41.0 °F 31.9 °F 17.6 °F 39% 30.11 in - ESE 19.6 mph 24.2 mph N/A   Scattered Clouds
12:55 AM 41.0 °F 31.9 °F 17.6 °F 39% 30.11 in - ESE 19.6 mph 25.3 mph N/A   Scattered Clouds
1:15 AM 41.0 °F 32.8 °F 17.6 °F 39% 30.12 in - East 16.1 mph 21.9 mph N/A   Clear
1:35 AM 39.2 °F 30.5 °F 19.4 °F 45% 30.12 in - East 16.1 mph - N/A   Scattered Clouds
1:55 AM 39.2 °F 30.5 °F 17.6 °F 42% 30.11 in - East 16.1 mph - N/A   Mostly Cloudy
2:15 AM 39.2 °F 30.2 °F 17.6 °F 42% 30.11 in - East 17.3 mph - N/A   Overcast
2:35 AM 39.2 °F 30.5 °F 17.6 °F 42% 30.10 in - ESE 16.1 mph 19.6 mph N/A   Mostly Cloudy
2:55 AM 39.2 °F 30.2 °F 15.8 °F 39% 30.10 in - East 17.3 mph - N/A   Clear
3:15 AM 39.2 °F 30.5 °F 17.6 °F 42% 30.10 in - ESE 16.1 mph - N/A   Clear
3:35 AM 37.4 °F 27.8 °F 17.6 °F 45% 30.10 in - East 17.3 mph - N/A   Clear
3:55 AM 37.4 °F 27.5 °F 19.4 °F 48% 30.09 in - East 18.4 mph 23.0 mph N/A   Mostly Cloudy
4:15 AM 37.4 °F 27.8 °F 19.4 °F 48% 30.08 in - East 17.3 mph 24.2 mph N/A   Mostly Cloudy
4:35 AM 37.4 °F 27.8 °F 19.4 °F 48% 30.09 in - ESE 17.3 mph 21.9 mph N/A   Mostly Cloudy
4:55 AM 37.4 °F 27.8 °F 21.2 °F 52% 30.09 in - East 17.3 mph - N/A   Mostly Cloudy
5:15 AM 37.4 °F 27.5 °F 19.4 °F 48% 30.10 in - East 18.4 mph - N/A   Scattered Clouds
5:35 AM 37.4 °F 27.8 °F 21.2 °F 52% 30.10 in - ESE 17.3 mph 20.7 mph N/A   Clear
5:55 AM 37.4 °F 27.5 °F 21.2 °F 52% 30.08 in - East 18.4 mph 21.9 mph N/A   Clear
6:15 AM 37.4 °F 27.8 °F 21.2 °F 52% 30.08 in - East 17.3 mph 21.9 mph N/A   Mostly Cloudy
6:35 AM 37.4 °F 28.2 °F 21.2 °F 52% 30.07 in - ESE 16.1 mph - N/A   Overcast
6:55 AM 37.4 °F 28.2 °F 21.2 °F 52% 30.08 in - East 16.1 mph - N/A   Overcast
7:15 AM 39.2 °F 30.2 °F 21.2 °F 49% 30.08 in - ESE 17.3 mph - N/A   Overcast
7:55 AM 39.2 °F 29.8 °F 23.0 °F 52% 30.08 in - ESE 18.4 mph 23.0 mph N/A   Partly Cloudy
8:15 AM 39.2 °F 29.3 °F 23.0 °F 52% 30.08 in - ESE 20.7 mph 25.3 mph N/A   Partly Cloudy
8:35 AM 39.2 °F 28.7 °F 23.0 °F 52% 30.08 in - ESE 23.0 mph 26.5 mph N/A   Clear
8:55 AM 39.2 °F 29.3 °F 23.0 °F 52% 30.08 in - ESE 20.7 mph 26.5 mph N/A   Clear
9:15 AM 41.0 °F 31.4 °F 23.0 °F 49% 30.08 in - ESE 21.9 mph 26.5 mph N/A   Clear
9:35 AM 41.0 °F 31.1 °F 23.0 °F 49% 30.08 in - ESE 23.0 mph - N/A   Partly Cloudy
9:55 AM 41.0 °F 31.6 °F 23.0 °F 49% 30.07 in - ESE 20.7 mph 28.8 mph N/A   Partly Cloudy
10:15 AM 41.0 °F 31.4 °F 23.0 °F 49% 30.07 in - ESE 21.9 mph 26.5 mph N/A   Partly Cloudy
10:35 AM 42.8 °F 34.0 °F 23.0 °F 46% 30.07 in - ESE 20.7 mph 27.6 mph N/A   Partly Cloudy
10:55 AM 44.6 °F 35.9 °F 23.0 °F 43% 30.07 in - ESE 23.0 mph 26.5 mph N/A   Partly Cloudy
11:15 AM 44.6 °F 36.1 °F 23.0 °F 43% 30.07 in - ESE 21.9 mph - N/A   Mostly Cloudy
11:35 AM 44.6 °F 35.9 °F 23.0 °F 43% 30.07 in - ESE 23.0 mph 26.5 mph N/A   Overcast
11:55 AM 46.4 °F 37.9 °F 23.0 °F 40% 30.07 in - ESE 25.3 mph 28.8 mph N/A   Overcast
12:15 PM 48.2 °F - 23.0 °F 37% 30.07 in - ESE 24.2 mph 29.9 mph N/A   Overcast
12:35 PM 48.2 °F - 23.0 °F 37% 30.06 in - ESE 23.0 mph 29.9 mph N/A   Overcast
12:55 PM 48.2 °F - 23.0 °F 37% 30.06 in - ESE 23.0 mph 28.8 mph N/A   Mostly Cloudy
1:15 PM 48.2 °F - 21.2 °F 34% 30.06 in - SE 23.0 mph 31.1 mph N/A   Overcast
1:35 PM 48.2 °F - 21.2 °F 34% 30.05 in - ESE 26.5 mph 33.4 mph N/A   Overcast
1:55 PM 48.2 °F - 21.2 °F 34% 30.05 in - ESE 26.5 mph 34.5 mph N/A   Overcast
2:15 PM 50.0 °F - 21.2 °F 32% 30.04 in - SE 27.6 mph 33.4 mph N/A   Overcast
2:35 PM 50.0 °F - 21.2 °F 32% 30.04 in - ESE 25.3 mph 34.5 mph N/A   Overcast
3:15 PM 48.2 °F - 21.2 °F 34% 30.03 in - ESE 23.0 mph 29.9 mph N/A   Overcast
3:35 PM 50.0 °F - 21.2 °F 32% 30.02 in - ESE 23.0 mph 32.2 mph N/A   Overcast
3:55 PM 50.0 °F - 21.2 °F 32% 30.02 in - SE 21.9 mph 35.7 mph N/A   Overcast
4:15 PM 50.0 °F - 24.8 °F 37% 30.02 in - ESE 20.7 mph 33.4 mph N/A   Overcast
4:35 PM 50.0 °F - 21.2 °F 32% 30.02 in - ESE 23.0 mph 28.8 mph N/A   Overcast
4:55 PM 48.2 °F - 23.0 °F 37% 30.02 in - SE 18.4 mph 25.3 mph N/A   Overcast
5:15 PM 48.2 °F - 23.0 °F 37% 30.02 in - ESE 19.6 mph 26.5 mph N/A   Scattered Clouds
5:35 PM 46.4 °F 39.2 °F 24.8 °F 43% 30.02 in - East 18.4 mph 24.2 mph N/A   Mostly Cloudy
5:55 PM 46.4 °F 39.5 °F 26.6 °F 46% 30.03 in - ESE 17.3 mph 21.9 mph N/A   Mostly Cloudy
6:15 PM 44.6 °F 36.4 °F 26.6 °F 49% 30.03 in - East 20.7 mph 31.1 mph N/A   Mostly Cloudy
6:55 PM 44.6 °F 36.9 °F 28.4 °F 53% 30.01 in - ESE 18.4 mph - N/A   Overcast
7:15 PM 42.8 °F 33.8 °F 28.4 °F 57% 30.00 in - East 21.9 mph 28.8 mph N/A   Overcast
7:35 PM 41.0 °F 31.4 °F 28.4 °F 61% 30.00 in - East 21.9 mph - N/A   Mostly Cloudy
7:55 PM 41.0 °F 32.2 °F 32.0 °F 70% 30.00 in - ESE 18.4 mph 24.2 mph N/A Rain Light Rain
8:15 PM 41.0 °F 32.8 °F 32.0 °F 70% 30.00 in - ESE 16.1 mph - N/A Rain Light Rain
8:55 PM 41.0 °F 33.5 °F 32.0 °F 70% 30.01 in - ESE 13.8 mph - N/A Rain Light Rain
9:15 PM 39.2 °F 30.8 °F 32.0 °F 75% 30.02 in - ESE 15.0 mph - N/A   Mostly Cloudy
9:35 PM 39.2 °F 32.0 °F 33.8 °F 81% 30.03 in - ESE 11.5 mph - N/A   Overcast
9:55 PM 39.2 °F 31.2 °F 33.8 °F 81% 30.04 in - ESE 13.8 mph - N/A Rain Light Rain
10:15 PM 39.2 °F 32.0 °F 35.6 °F 87% 30.05 in - SE 11.5 mph - N/A   Unknown
10:35 PM 39.2 °F 32.5 °F 35.6 °F 87% 30.06 in - SE 10.4 mph - N/A   Overcast
10:55 PM 39.2 °F 33.6 °F 35.6 °F 87% 30.06 in - SE 8.1 mph - N/A   Unknown
11:15 PM 39.2 °F 34.2 °F 35.6 °F 87% 30.06 in - SE 6.9 mph - N/A   Overcast
11:35 PM 39.2 °F 35.9 °F 35.6 °F 87% 30.06 in - SE 4.6 mph - N/A   Unknown
11:55 PM 39.2 °F 37.0 °F 37.4 °F 93% 30.06 in - ENE 3.5 mph - N/A   Overcast